WetterOnline ( https://www.wetteronline.de )

Wetter aktuell Ludwigsburg

Aktuelles Wetter: Schnarrenberg/Stuttgart (315m)

6-stündlich | Neueste Meldungen
Ortszeit Temperatur Wetter
Di, 26.05. 20:00 16.4° C wolkenlos
Di, 26.05. 14:00 17.5° C wolkig
Di, 26.05. 8:00 12.2° C fast wolkenlos
Di, 26.05. 2:00 12.2° C leicht bewölkt
Mo, 25.05. 20:00 17.9° C wolkenlos
Mo, 25.05. 14:00 17.2° C bewölkt
Mo, 25.05. 8:00 12.7° C bewölkt
Mo, 25.05. 2:00 13.6° C bedeckt
Ortszeit Temperatur Wetter
Mi, 27.05. 1:00 11.8° C wolkenlos
Mi, 27.05. 0:50 11.8° C wolkenlos
Mi, 27.05. 0:40 12.0° C fast wolkenlos
Mi, 27.05. 0:30 12.4° C leicht bewölkt
Mi, 27.05. 0:20 12.4° C leicht bewölkt
Mi, 27.05. 0:10 12.6° C fast wolkenlos
Mi, 27.05. 0:00 12.7° C wolkenlos
Di, 26.05. 23:30 13.0° C wolkenlos
Di, 26.05. 23:00 13.0° C fast wolkenlos
Di, 26.05. 22:30 13.7° C wolkig
Di, 26.05. 22:00 14.3° C bewölkt
Di, 26.05. 21:30 14.9° C bewölkt
Ortszeit Relative Feuchte Sichtweite
Di, 26.05. 20:00 47% >70 km
Di, 26.05. 14:00 47% 55 km
Di, 26.05. 8:00 73% 35 km
Di, 26.05. 2:00 72% 60 km
Mo, 25.05. 20:00 48% 65 km
Mo, 25.05. 14:00 54% 55 km
Mo, 25.05. 8:00 77% 55 km
Mo, 25.05. 2:00 68% 65 km
Ortszeit Relative Feuchte Sichtweite
Mi, 27.05. 1:00 65% >70 km
Mi, 27.05. 0:50 65% -
Mi, 27.05. 0:40 64% -
Mi, 27.05. 0:30 63% >70 km
Mi, 27.05. 0:20 63% -
Mi, 27.05. 0:10 62% -
Mi, 27.05. 0:00 61% >70 km
Di, 26.05. 23:30 60% 60 km
Di, 26.05. 23:00 61% >70 km
Di, 26.05. 22:30 60% >70 km
Di, 26.05. 22:00 56% 65 km
Di, 26.05. 21:30 54% >70 km
Ortszeit Niederschlagsmenge Niederschlagsart
Di, 26.05. 20:00 0.0 l/m2 in 12 Std. -
Di, 26.05. 14:00 0.0 l/m2 in 6 Std. -
Di, 26.05. 8:00 0.0 l/m2 in 12 Std. -
Di, 26.05. 2:00 0.0 l/m2 in 6 Std. -
Mo, 25.05. 20:00 0.0 l/m2 in 12 Std. -
Mo, 25.05. 14:00 0.0 l/m2 in 6 Std. -
Mo, 25.05. 8:00 0.1 l/m2 in 12 Std. -
Mo, 25.05. 2:00 0.1 l/m2 in 6 Std. Regen
Ortszeit Niederschlagsmenge Niederschlagsart
Mi, 27.05. 1:00 0.0 l/m2 in 1 Std. -
Mi, 27.05. 0:50 keine Meldung -
Mi, 27.05. 0:40 keine Meldung -
Mi, 27.05. 0:30 0.0 l/m2 in 1 Std. -
Mi, 27.05. 0:20 keine Meldung -
Mi, 27.05. 0:10 keine Meldung -
Mi, 27.05. 0:00 0.0 l/m2 in 1 Std. -
Di, 26.05. 23:30 0.0 l/m2 in 1 Std. -
Di, 26.05. 23:00 0.0 l/m2 in 1 Std. -
Di, 26.05. 22:30 0.0 l/m2 in 1 Std. -
Di, 26.05. 22:00 0.0 l/m2 in 1 Std. -
Di, 26.05. 21:30 0.0 l/m2 in 1 Std. -
Ortszeit Stärke Spitze Richtung
km/h Bft. km/h Grad Sektor
Di, 26.05. 20:00 7 2 29 50° NO
Di, 26.05. 14:00 13 3 24 50° NO
Di, 26.05. 8:00 4 1 11 30° NO
Di, 26.05. 2:00 7 2 29 270° W
Mo, 25.05. 20:00 18 3 43 310° NW
Mo, 25.05. 14:00 20 4 31 320° NW
Mo, 25.05. 8:00 13 3 24 310° NW
Mo, 25.05. 2:00 7 2 35 290° W
Ortszeit Stärke Spitze Richtung
km/h Bft. km/h Grad Sektor
Mi, 27.05. 1:00 4 1 7 300° NW
Mi, 27.05. 0:50 4 1 - 300° NW
Mi, 27.05. 0:40 4 1 - 330° NW
Mi, 27.05. 0:30 4 1 7 30° NO
Mi, 27.05. 0:20 4 1 - 30° NO
Mi, 27.05. 0:10 4 1 - 40° NO
Mi, 27.05. 0:00 4 1 7 300° NW
Di, 26.05. 23:30 4 1 7 320° NW
Di, 26.05. 23:00 4 1 11 10° N
Di, 26.05. 22:30 6 1 9 50° NO
Di, 26.05. 22:00 7 2 11 50° NO
Di, 26.05. 21:30 7 2 11 50° NO
Ortszeit Untergrenze Bedeckung Gattung
total tief tief mittel hoch
Di, 26.05. 20:00 - 0/8 0/8 - - -
Di, 26.05. 14:00 1500 m 7/8 7/8 - - -
Di, 26.05. 8:00 1500 m 1/8 1/8 - - -
Di, 26.05. 2:00 1800 m 2/8 2/8 - - -
Mo, 25.05. 20:00 - 0/8 0/8 - - -
Mo, 25.05. 14:00 2100 m 7/8 7/8 - - -
Mo, 25.05. 8:00 1440 m 7/8 7/8 - - -
Mo, 25.05. 2:00 1140 m 8/8 8/8 - - -
Ortszeit Bedeckungsgrad in Achtel und Wolkenuntergrenze
Mi, 27.05. 1:00 keine Wolken
Mi, 27.05. 0:50 keine Wolken
Mi, 27.05. 0:40 1(8100m)
Mi, 27.05. 0:30 3(8100m)
Mi, 27.05. 0:20 3(8100m)
Mi, 27.05. 0:10 1(8100m)
Mi, 27.05. 0:00 keine Wolken
Di, 26.05. 23:30 keine Wolken
Di, 26.05. 23:00 1(9000m)
Di, 26.05. 22:30 2(1800m) 8(10500m) 8(10500m)
Di, 26.05. 22:00 4(1800m) 8(9000m)
Di, 26.05. 21:30 4(1800m) 7(10500m) 8(10500m)
Ortszeit Luftdruck NN (hPa) Tendenz (hPa in 3 Std.)
Di, 26.05. 20:00 1033 + 0,1
Di, 26.05. 14:00 1033 - 0,3
Di, 26.05. 8:00 1034 + 1,0
Di, 26.05. 2:00 1033 + 0,2
Mo, 25.05. 20:00 1031 - 0,1
Mo, 25.05. 14:00 1032 - 0,4
Mo, 25.05. 8:00 1033 + 0,6
Mo, 25.05. 2:00 1032 - 0,3
Ortszeit Luftdruck NN (hPa) Tendenz (hPa in 3 Std.)
Mi, 27.05. 1:00 1034 + 0,1
Mi, 27.05. 0:50 1034 keine Meldung
Mi, 27.05. 0:40 1035 keine Meldung
Mi, 27.05. 0:30 1034 + 0,3
Mi, 27.05. 0:20 1034 keine Meldung
Mi, 27.05. 0:10 1034 keine Meldung
Mi, 27.05. 0:00 1034 + 0,5
Di, 26.05. 23:30 1034 + 0,8
Di, 26.05. 23:00 1034 + 0,7
Di, 26.05. 22:30 1034 + 0,8
Di, 26.05. 22:00 1034 + 0,6
Di, 26.05. 21:30 1034 + 0,6
Ortszeit Schneehöhe (cm)
Di, 26.05. 20:00 -
Di, 26.05. 14:00 -
Di, 26.05. 8:00 -
Di, 26.05. 2:00 -
Mo, 25.05. 20:00 -
Mo, 25.05. 14:00 -
Mo, 25.05. 8:00 -
Mo, 25.05. 2:00 -
Ortszeit Schneehöhe (cm)
Mi, 27.05. 1:00 -
Mi, 27.05. 0:50 -
Mi, 27.05. 0:40 -
Mi, 27.05. 0:30 -
Mi, 27.05. 0:20 -
Mi, 27.05. 0:10 -
Mi, 27.05. 0:00 -
Di, 26.05. 23:30 -
Di, 26.05. 23:00 -
Di, 26.05. 22:30 -
Di, 26.05. 22:00 -
Di, 26.05. 21:30 -
Link zu dieser Seite / Seite empfehlen

Das Wetter in ...